BEESAT-1

Last updated on Mon Sep 21 2026 00:03:14 GMT+0000 (Coordinated Universal Time)

1 35933U 09051C 26262.98121095 .00000495 00000+0 10890-3 0 9999 2 35933 98.3868 171.9170 0004187 302.4264 57.6531 14.61845269903032
UTC large
Height (km)
Speed (km/s)
/
Latitude / Longitude
Inclination (degrees)
Orbital Period (minutes)
Azimuth
Elevation
Range (km)
Doppler Factor

Next 0 passes for location: London (51.5072 / 0.1276)

No passes found over London.
BEESAT-1